FOX-1CLIFF (AO-95)

Last updated on Mon Sep 21 2026 00:03:14 GMT+0000 (Coordinated Universal Time)

1 43770U 18099N 26263.12239025 .00007863 00000+0 28592-3 0 9993 2 43770 97.4285 323.0885 0008479 22.9515 337.2102 15.28501039427712
UTC large
Height (km)
Speed (km/s)
/
Latitude / Longitude
Inclination (degrees)
Orbital Period (minutes)
Azimuth
Elevation
Range (km)
Doppler Factor

Next 0 passes for location: London (51.5072 / 0.1276)

No passes found over London.
FOX-1CLIFF (AO-95)